Home   Weather   Ghent   Past weeks

Flag for Belgium Past Weather in Ghent, Belgium — Yesterday and Last 2 Weeks

Now
47 °F

Cool.


Feels Like: N/A
Forecast: 58 / 72 °F
Wind: N/A

Location: Munte

Current Time: Sep 27, 2016 at 7:24:14 AM

Latest Report: Sep 27, 2016 at 7:00 AM


Visibility: 8 mi

Pressure: 30.29 "Hg

Humidity: 91%

Dew Point: 45 °F

Location of GhentLocation

Past Weather in Ghent — Graph

°F

Ghent Temperature Yesterday

Maximum temperature yesterday: 64 °F (at 4:00 PM)
Minimum temperature yesterday: 49 °F (at 7:00 AM)
Average temperature yesterday: 56 °F

High & Low Weather Summary for the Past Weeks

 TemperatureHumidityPressure
High89 °F (Sep 13, 5:00 PM)96% (Sep 18, 5:00 AM)30.31 "Hg (Sep 18, 5:00 AM)
Low48 °F (Sep 21, 7:00 AM)36% (Sep 24, 3:00 PM)29.80 "Hg (Sep 15, 6:00 AM)
Average64 °F72%30.05 "Hg
* Reported Sep 12 5:00 AM — Sep 27 5:00 AM, Ghent, Weather by CustomWeather, © 2016

Note: Actual official high and low records may vary slightly from our data, if they occured in-between our weather recording intervals... More about our weather records

Advertising

Ghent Weather History for the Previous 24 Hours

Scroll right to see more
 ConditionsComfort  
Time TempWeatherWind HumidityBarometerVisibility
5:00 AM
Tue, Sep 27
49 °FCool.2 mph92%30.28 "Hg8 mi
4:00 AM49 °FCool.2 mph91%30.27 "Hg9 mi
3:00 AM49 °FCool.N/A91%30.28 "Hg11 mi
1:00 AM51 °FCool.2 mph87%30.27 "Hg12 mi
12:00 AM52 °FCool.N/A86%30.26 "Hg11 mi
11:00 PM
Mon, Sep 26
53 °FCool.N/A84%30.26 "Hg12 mi
10:00 PM54 °FCool.N/A81%30.26 "Hg12 mi
9:00 PM58 °FCool.N/A73%30.25 "Hg12 mi
8:00 PM58 °FCool.N/A74%30.25 "Hg12 mi
7:00 PM61 °FCool.N/A62%30.25 "Hg12 mi
6:00 PM63 °FMild.N/A56%30.24 "Hg12 mi
4:00 PM64 °FMild.N/A57%30.24 "Hg12 mi
3:00 PM63 °FMild.2 mph59%30.24 "Hg12 mi
2:00 PM62 °FCool.3 mph63%30.24 "Hg11 mi
1:00 PM61 °FCool.2 mph65%30.25 "Hg12 mi
12:00 PM59 °FCool.2 mph73%30.25 "Hg12 mi
11:00 AM57 °FCool.N/A80%30.25 "Hg11 mi
10:00 AM53 °FCool.N/A86%30.25 "Hg11 mi
9:00 AM51 °FCool.2 mph87%30.24 "Hg11 mi
8:00 AM49 °FCool.2 mph90%30.24 "Hg11 mi
7:00 AM49 °FCool.2 mph89%30.24 "Hg10 mi
Weather by CustomWeather, © 2016

See weather overviewHow to use our weather pages